Providence, RI

10:32 PM EDT on April 25, 2017 (GMT -0400)
Green State

Weather History for KPVD - December, 2011

Change the Weather History Date:

Friday, December 30, 2011

  Actual Average Record
Temperature  
Mean Temperature 41 °F 30 °F  
Max Temperature 53 °F 39 °F 63 °F (1984)
Min Temperature 28 °F 22 °F -12 °F (1917)
Degree Days  
Heating Degree Days 24 35  
Month to date heating degree days 767 917  
Since 1 July heating degree days 1608 1992  
Cooling Degree Days 0 0  
Month to date cooling degree days 0 0  
Year to date cooling degree days 921 744  
Moisture  
Dew Point 24 °F    
Average Humidity 56    
Maximum Humidity 69    
Minimum Humidity 43    
Precipitation  
Precipitation 0.00 in 0.11 in 1.81 in (1942)
Month to date precipitation 3.95 4.11  
Year to date precipitation 56.71 47.07  
Snow  
Snow 0.00 in 0.40 in 6.30 in (1993)
Month to date snowfall T 8.4  
Since 1 July snowfall 2.3 9.9  
Snow Depth 0.00 in    
Sea Level Pressure  
Sea Level Pressure 30.06 in    
Wind  
Wind Speed 4 mph (North)    
Max Wind Speed 16 mph    
Max Gust Speed 21 mph    
Visibility 10 miles    
Events      
T = Trace of Precipitation, MM = Missing Value Source: NWS Daily Summary

Daily Weather History Graph

Daily Weather History Graph

Search for Another Location

Airport or City:

Trip Planner

Search our weather history database for the weather conditions in past years. The results will help you decide how hot, cold, wet, or windy it might be!

Date:

Astronomy

Dec. 30, 2011 Rise Set
Actual Time 7:12 AM EST 4:23 PM EST
Civil Twilight 6:41 AM EST 4:55 PM EST
Nautical Twilight 6:06 AM EST 5:30 PM EST
Astronomical Twilight 5:32 AM EST 6:04 PM EST
Moon 10:25 AM EST (12/30) 11:02 PM EST (12/30)
Length of Visible Light 10h 14m
Length of Day
9h 11m
Waxing Crescent, 35% of the Moon is Illuminated
Dec 30
Waxing Crescent
Jan 1
First Quarter
Jan 9
Full
Jan 16
Last Quarter
Jan 23
New

Hourly Weather History & Observations

Time (EST) Temp. Windchill Dew Point Humidity Pressure Visibility Wind Dir Wind Speed Gust Speed Precip Events Conditions
12:51 AM 28.9 °F - 10.9 °F 47% 30.05 in 10.0 mi Calm Calm - N/A   Mostly Cloudy
1:51 AM 28.9 °F - 10.9 °F 47% 30.06 in 10.0 mi Calm Calm - N/A   Partly Cloudy
2:51 AM 28.9 °F - 15.1 °F 56% 30.07 in 10.0 mi Calm Calm - N/A   Overcast
3:51 AM 28.9 °F - 17.1 °F 61% 30.05 in 10.0 mi Calm Calm - N/A   Overcast
4:51 AM 30.9 °F - 14.0 °F 50% 30.05 in 10.0 mi Calm Calm - N/A   Overcast
5:51 AM 30.0 °F - 16.0 °F 56% 30.06 in 10.0 mi Calm Calm - N/A   Overcast
6:51 AM 28.0 °F - 16.0 °F 61% 30.06 in 10.0 mi Calm Calm - N/A   Scattered Clouds
7:51 AM 30.9 °F - 19.9 °F 64% 30.08 in 10.0 mi Calm Calm - N/A   Mostly Cloudy
8:51 AM 35.6 °F - 21.2 °F 56% 30.08 in 10.0 mi Calm Calm - N/A   Mostly Cloudy
9:51 AM 39.0 °F 34.8 °F 24.1 °F 55% 30.09 in 10.0 mi North 5.8 mph - N/A   Mostly Cloudy
10:51 AM 41.0 °F 38.0 °F 25.0 °F 53% 30.07 in 10.0 mi NNE 4.6 mph - N/A   Mostly Cloudy
11:51 AM 43.0 °F 40.3 °F 28.0 °F 56% 30.04 in 10.0 mi North 4.6 mph - N/A   Mostly Cloudy
12:51 PM 43.0 °F 40.3 °F 28.0 °F 56% 30.04 in 10.0 mi North 4.6 mph - N/A   Mostly Cloudy
1:51 PM 51.1 °F - 34.0 °F 52% 30.03 in 10.0 mi South 13.8 mph 20.7 mph N/A   Mostly Cloudy
2:51 PM 52.0 °F - 35.1 °F 53% 30.04 in 10.0 mi SSW 12.7 mph - N/A   Mostly Cloudy
3:51 PM 48.2 °F - 35.6 °F 62% 30.05 in 10.0 mi South 5.8 mph - N/A   Mostly Cloudy
4:51 PM 48.0 °F - 36.0 °F 63% 30.06 in 10.0 mi Calm Calm - N/A   Mostly Cloudy
5:51 PM 42.8 °F 39.3 °F 30.2 °F 61% 30.08 in 10.0 mi North 5.8 mph - N/A   Mostly Cloudy
6:51 PM 37.9 °F 34.4 °F 26.1 °F 62% 30.08 in 10.0 mi NNW 4.6 mph - N/A   Mostly Cloudy
7:51 PM 37.0 °F 32.4 °F 25.0 °F 62% 30.08 in 10.0 mi North 5.8 mph - N/A   Mostly Cloudy
8:51 PM 36.0 °F 32.1 °F 25.0 °F 64% 30.09 in 10.0 mi NNW 4.6 mph - N/A   Mostly Cloudy
9:51 PM 35.1 °F 30.1 °F 25.0 °F 67% 30.09 in 10.0 mi North 5.8 mph - N/A   Mostly Cloudy
10:51 PM 34.0 °F 31.0 °F 24.1 °F 67% 30.07 in 10.0 mi North 3.5 mph - N/A   Mostly Cloudy
11:51 PM 33.1 °F 27.7 °F 24.1 °F 70% 30.06 in 10.0 mi North 5.8 mph - N/A   Mostly Cloudy